Weather History for KFSO - December, 2013

Change the Weather History Date:

Sunday, December 1, 2013

  Actual Average (KPBG) Record (KPBG)
Temperature  
Mean Temperature 35 °F 30 °F  
Max Temperature 38 °F 39 °F 55 °F (1975)
Min Temperature 32 °F 22 °F -2 °F (1958)
Degree Days  
Heating Degree Days 30 35  
Month to date heating degree days 35  
Since 1 July heating degree days 1669  
Cooling Degree Days 0 0  
Month to date cooling degree days 0  
Year to date cooling degree days 346  
Moisture  
Dew Point 27 °F    
Average Humidity 73    
Maximum Humidity 93    
Minimum Humidity 49    
Precipitation  
Precipitation 0.00 in - 0.95 in (2010)
Month to date precipitation  
Year to date precipitation  
Sea Level Pressure  
Sea Level Pressure 30.15 in    
Wind  
Wind Speed 6 mph (South)    
Max Wind Speed 12 mph    
Max Gust Speed 24 mph    
Visibility 7 miles    
Events Snow    
T = Trace of Precipitation, MM = Missing Value Source: NWS Daily Summary

Daily Weather History Graph

Daily Weather History Graph

Search for Another Location

Airport or City:

Trip Planner

Search our weather history database for the weather conditions in past years. The results will help you decide how hot, cold, wet, or windy it might be!

Date:

Astronomy

Dec. 01, 2013 Rise Set
Actual Time 7:10 AM EST 4:12 PM EST
Civil Twilight 6:37 AM EST 4:45 PM EST
Nautical Twilight 6:00 AM EST 5:22 PM EST
Astronomical Twilight 5:25 AM EST 5:57 PM EST
Moon 5:21 AM EST (12/1) 3:22 PM EST (12/1)
Length of Visible Light 10h 08m
Length of Day
9h 02m
Waning Crescent, 2% of the Moon is Illuminated
Dec 1
Waning Crescent
Dec 2
New
Dec 9
First Quarter
Dec 17
Full
Dec 25
Last Quarter

Hourly Weather History & Observations

Time (EST) Temp. Windchill Dew Point Humidity Pressure Visibility Wind Dir Wind Speed Gust Speed Precip Events Conditions
12:15 AM 32.0 °F 23.6 °F 14.7 °F 49% 30.27 in 10.0 mi South 10.4 mph 20.7 mph N/A   Overcast
12:35 AM 32.0 °F 23.0 °F 14.9 °F 49% 30.26 in 10.0 mi South 11.5 mph 24.2 mph N/A   Mostly Cloudy
12:55 AM 32.0 °F 23.0 °F 15.6 °F 51% 30.26 in 10.0 mi South 11.5 mph 18.4 mph N/A   Mostly Cloudy
1:15 AM 32.0 °F 23.0 °F 15.8 °F 51% 30.26 in 10.0 mi South 11.5 mph 19.6 mph N/A   Scattered Clouds
1:35 AM 32.0 °F 23.6 °F 16.7 °F 53% 30.26 in 10.0 mi South 10.4 mph 16.1 mph N/A   Mostly Cloudy
1:55 AM 32.5 °F 23.7 °F 18.0 °F 55% 30.26 in 10.0 mi South 11.5 mph 17.3 mph N/A   Overcast
2:15 AM 32.7 °F 25.7 °F 18.5 °F 56% 30.25 in 10.0 mi South 8.1 mph - N/A   Overcast
2:35 AM 33.1 °F 26.1 °F 19.2 °F 57% 30.25 in 10.0 mi South 8.1 mph 18.4 mph N/A   Mostly Cloudy
2:55 AM 33.1 °F 26.1 °F 19.4 °F 57% 30.24 in 10.0 mi South 8.1 mph 16.1 mph N/A   Mostly Cloudy
3:15 AM 33.1 °F 24.9 °F 19.9 °F 59% 30.23 in 10.0 mi South 10.4 mph 17.3 mph N/A   Mostly Cloudy
3:35 AM 33.1 °F 26.1 °F 20.3 °F 59% 30.22 in 10.0 mi South 8.1 mph 17.3 mph N/A   Mostly Cloudy
3:55 AM 33.1 °F 25.5 °F 20.8 °F 61% 30.22 in 10.0 mi South 9.2 mph - N/A   Overcast
4:15 AM 33.1 °F 26.9 °F 21.2 °F 62% 30.21 in 10.0 mi South 6.9 mph - N/A   Mostly Cloudy
4:35 AM 33.1 °F 27.7 °F 21.6 °F 63% 30.21 in 10.0 mi South 5.8 mph - N/A   Overcast
4:55 AM 33.1 °F 26.9 °F 21.7 °F 63% 30.20 in 10.0 mi South 6.9 mph - N/A   Overcast
5:15 AM 33.1 °F 26.1 °F 22.1 °F 64% 30.20 in 10.0 mi South 8.1 mph - N/A   Overcast
5:35 AM 33.4 °F 27.3 °F 22.5 °F 64% 30.20 in 10.0 mi South 6.9 mph - N/A   Overcast
5:55 AM 33.3 °F 28.9 °F 22.5 °F 65% 30.20 in 10.0 mi South 4.6 mph - N/A   Overcast
6:15 AM 33.8 °F 28.6 °F 23.2 °F 65% 30.20 in 10.0 mi South 5.8 mph - N/A   Overcast
6:35 AM 33.1 °F 27.7 °F 22.8 °F 66% 30.19 in 10.0 mi South 5.8 mph - N/A   Overcast
6:55 AM 33.1 °F 27.7 °F 23.2 °F 67% 30.19 in 10.0 mi South 5.8 mph - N/A   Overcast
7:15 AM 33.1 °F 26.9 °F 23.4 °F 67% 30.19 in 10.0 mi South 6.9 mph - N/A   Overcast
7:35 AM 35.4 °F 30.5 °F 25.7 °F 68% 30.19 in 10.0 mi South 5.8 mph - N/A   Overcast
7:55 AM 35.6 °F 30.7 °F 25.7 °F 67% 30.19 in 10.0 mi South 5.8 mph - N/A   Overcast
8:15 AM 35.6 °F 32.8 °F 25.7 °F 67% 30.19 in 10.0 mi South 3.5 mph - N/A   Overcast
8:35 AM 35.6 °F 31.7 °F 25.7 °F 67% 30.19 in 10.0 mi South 4.6 mph - N/A   Overcast
8:55 AM 35.6 °F 30.7 °F 25.7 °F 67% 30.18 in 10.0 mi South 5.8 mph - N/A   Overcast
9:15 AM 35.6 °F 31.7 °F 25.9 °F 68% 30.18 in 10.0 mi South 4.6 mph - N/A   Overcast
9:35 AM 35.6 °F 32.8 °F 25.7 °F 67% 30.19 in 10.0 mi South 3.5 mph - N/A   Overcast
9:55 AM 35.6 °F - 25.7 °F 67% 30.18 in 10.0 mi Calm Calm - N/A   Overcast
10:15 AM 35.6 °F 32.8 °F 25.5 °F 67% 30.18 in 10.0 mi South 3.5 mph - N/A   Mostly Cloudy
10:35 AM 38.1 °F 34.6 °F 27.5 °F 66% 30.17 in 10.0 mi SSW 4.6 mph - N/A   Mostly Cloudy
10:55 AM 38.3 °F 33.9 °F 27.5 °F 65% 30.16 in 10.0 mi South 5.8 mph - N/A   Mostly Cloudy
11:15 AM 38.3 °F 35.9 °F 27.5 °F 65% 30.15 in 10.0 mi SSW 3.5 mph - N/A   Mostly Cloudy
11:35 AM 38.3 °F 34.8 °F 27.3 °F 65% 30.14 in 10.0 mi SSW 4.6 mph - N/A   Overcast
11:55 AM 38.3 °F 35.9 °F 27.3 °F 65% 30.14 in 10.0 mi SW 3.5 mph - N/A   Overcast
12:15 PM 38.3 °F 34.8 °F 27.3 °F 65% 30.14 in 10.0 mi SSW 4.6 mph - N/A   Overcast
12:35 PM 38.3 °F 34.8 °F 27.3 °F 65% 30.12 in 10.0 mi South 4.6 mph - N/A   Overcast
12:55 PM 38.3 °F 35.9 °F 27.1 °F 64% 30.11 in 10.0 mi South 3.5 mph - N/A   Overcast
1:15 PM 38.3 °F - 27.3 °F 65% 30.11 in 10.0 mi Calm Calm - N/A   Overcast
1:35 PM 38.3 °F - 27.3 °F 65% 30.10 in 10.0 mi Calm Calm - N/A   Overcast
1:55 PM 38.3 °F - 27.1 °F 64% 30.10 in 10.0 mi Calm Calm - N/A   Overcast
2:15 PM 38.3 °F - 27.1 °F 64% 30.10 in 10.0 mi Calm Calm - N/A   Overcast
2:35 PM 38.3 °F - 27.5 °F 65% 30.10 in 10.0 mi Calm Calm - N/A   Overcast
2:55 PM 38.3 °F - 27.7 °F 66% 30.11 in 10.0 mi Calm Calm - N/A   Overcast
3:15 PM 38.3 °F - 30.0 °F 72% 30.11 in 3.0 mi Calm Calm - N/A   Unknown
3:35 PM 35.6 °F - 30.2 °F 81% 30.11 in 1.2 mi Calm Calm - N/A Snow Light Snow
3:55 PM 35.6 °F - 31.6 °F 85% 30.11 in 1.8 mi Calm Calm - N/A Snow Light Snow
4:15 PM 35.6 °F - 32.0 °F 87% 30.11 in 1.5 mi Calm Calm - N/A Snow Light Snow
4:35 PM 35.6 °F - 32.2 °F 87% 30.11 in 2.5 mi Calm Calm - N/A Snow Light Snow
4:55 PM 35.6 °F - 32.5 °F 89% 30.11 in 3.0 mi Calm Calm - N/A Snow Light Snow
5:15 PM 35.6 °F 31.7 °F 32.9 °F 90% 30.10 in 3.0 mi ESE 4.6 mph - N/A Snow Light Snow
5:35 PM 35.6 °F - 32.9 °F 90% 30.10 in 3.0 mi Calm Calm - N/A Snow Light Snow
5:55 PM 35.6 °F - 32.9 °F 90% 30.10 in 3.0 mi Calm Calm - N/A Snow Light Snow
6:15 PM 35.6 °F - 32.9 °F 90% 30.10 in 2.5 mi Calm Calm - N/A Snow Light Snow
6:35 PM 35.6 °F 32.8 °F 32.9 °F 90% 30.10 in 3.0 mi ESE 3.5 mph - N/A Snow Light Snow
6:55 PM 35.6 °F 32.8 °F 32.9 °F 90% 30.10 in 3.0 mi East 3.5 mph - N/A Snow Light Snow
7:15 PM 35.6 °F - 32.9 °F 90% 30.10 in 4.0 mi Calm Calm - N/A Snow Light Snow
7:35 PM 35.6 °F 32.8 °F 32.9 °F 90% 30.09 in 3.0 mi East 3.5 mph - N/A Snow Light Snow
7:55 PM 35.6 °F - 32.9 °F 90% 30.08 in 4.0 mi Calm Calm - N/A   Overcast
8:15 PM 35.6 °F - 33.1 °F 91% 30.08 in 4.0 mi Calm Calm - N/A   Overcast
8:35 PM 35.1 °F - 32.5 °F 91% 30.07 in 4.0 mi Calm Calm - N/A   Overcast
8:55 PM 34.2 °F - 32.0 °F 92% 30.07 in 4.0 mi Calm Calm - N/A   Overcast
9:15 PM 35.6 °F - 33.3 °F 91% 30.07 in 4.0 mi Calm Calm - N/A   Overcast
9:35 PM 34.5 °F - 32.2 °F 91% 30.07 in 3.0 mi Calm Calm - N/A   Overcast
9:55 PM 33.1 °F - 31.1 °F 92% 30.06 in 2.0 mi Calm Calm - N/A   Overcast
10:15 PM 33.1 °F - 31.3 °F 93% 30.06 in 2.5 mi Calm Calm - N/A   Overcast
10:35 PM 33.1 °F - 31.3 °F 93% 30.05 in 3.0 mi Calm Calm - N/A   Overcast
10:55 PM 33.8 °F - 32.0 °F 93% 30.05 in 4.0 mi Calm Calm - N/A   Overcast
11:15 PM 35.4 °F - 33.3 °F 92% 30.05 in 4.0 mi Calm Calm - N/A   Overcast
11:35 PM 35.6 °F - 33.4 °F 92% 30.04 in 5.0 mi Calm Calm - N/A   Overcast
11:55 PM 34.0 °F - 32.0 °F 92% 30.04 in 5.0 mi Calm Calm - N/A   Overcast